W6ORV Weather Reports


time (UTC)temp
C
wind
direction
speed
KPH
gust
KPH
rain 1hr
cm
rain 24hr
cm
rain mn
cm
humidity
%
barometer
mb
20260506165253 20 70 1.6 1.6 0.00 0.00 0.00 63 4304.3
20260506164749 18 38 0.0 1.6 0.00 0.00 0.00 66 4304.3
20260506164246 17 14 3.2 8.0 0.00 0.00 0.00 70 4304.1
20260506163743 16 194 3.2 3.2 0.00 0.00 0.00 74 4304.2
20260506163238 16 278 1.6 3.2 0.00 0.00 0.00 76 4304.5
20260506162734 15 287 3.2 3.2 0.00 0.00 0.00 78 4304.5
20260506162232 15 218 4.8 4.8 0.00 0.00 0.00 80 4304.5
20260506161729 14 294 3.2 3.2 0.00 0.00 0.00 83 4304.5
20260506161226 14 241 3.2 3.2 0.00 0.00 0.00 82 4304.4
20260506160724 13 305 6.4 8.0 0.00 0.00 0.00 82 4304.6
20260506160220 13 282 3.2 3.2 0.00 0.00 0.00 84 4304.6
20260506155719 13 187 0.0 0.0 0.00 0.00 0.00 85 4304.8
20260506155216 12 234 0.0 1.6 0.00 0.00 0.00 88 4304.6
20260506153317 11 196 0.0 0.0 0.00 0.00 0.00 95 4304.7
20260506152814 10 211 0.0 0.0 0.00 0.00 0.00 96 4304.9
20260506152311 10 259 0.0 0.0 0.00 0.00 0.00 96 4304.9
20260506151810 10 203 0.0 0.0 0.00 0.00 0.00 97 4304.6
20260506151307 10 195 0.0 0.0 0.00 0.00 0.00 98 4304.9
20260506150803 10 206 0.0 0.0 0.00 0.00 0.00 98 4304.8
20260506150304 10 197 0.0 0.0 0.00 0.00 0.00 98 4304.8
20260506145757 10 221 0.0 0.0 0.00 0.00 0.00 99 4305.0
20260506145254 10 176 0.0 0.0 0.00 0.00 0.00 99 4304.7
20260506144751 9 176 0.0 0.0 0.00 0.00 0.00 99 4304.9
20260506144248 10 167 0.0 0.0 0.00 0.00 0.00 99 4305.0
20260506143746 9 163 0.0 0.0 0.00 0.00 0.00 99 4304.9
20260506143243 8 163 0.0 0.0 0.00 0.00 0.00 99 4304.8
20260506142741 8 160 0.0 0.0 0.00 0.00 0.00 99 4304.7
20260506142239 7 160 0.0 0.0 0.00 0.00 0.00 99 4304.7
20260506141737 7 143 0.0 0.0 0.00 0.00 0.00 99 4304.6
20260506141235 7 147 0.0 0.0 0.00 0.00 0.00 99 4304.6
20260506140732 7 131 0.0 0.0 0.00 0.00 0.00 99 4304.7
20260506140229 7 139 0.0 0.0 0.00 0.00 0.00 99 4304.6
20260506135726 7 141 0.0 0.0 0.00 0.00 0.00 99 4304.6
20260506135222 7 141 0.0 0.0 0.00 0.00 0.00 99 4304.5
20260506134719 7 141 0.0 0.0 0.00 0.00 0.00 99 4304.5
20260506134215 7 141 0.0 0.0 0.00 0.00 0.00 99 4304.5
20260506133713 7 142 0.0 0.0 0.00 0.00 0.00 99 4304.3
20260506133209 7 142 0.0 0.0 0.00 0.00 0.00 99 4304.4
20260506132706 7 134 0.0 0.0 0.00 0.00 0.00 99 4304.3
20260506132203 7 140 0.0 0.0 0.00 0.00 0.00 99 4304.4
20260506131701 7 141 0.0 0.0 0.00 0.00 0.00 99 4304.3
20260506131156 7 140 0.0 0.0 0.00 0.00 0.00 99 4304.2
20260506130654 7 141 0.0 0.0 0.00 0.00 0.00 99 4304.2
20260506130151 8 141 0.0 0.0 0.00 0.00 0.00 99 4304.5
20260506125649 8 141 0.0 0.0 0.00 0.00 0.00 99 4304.1
20260506125147 8 141 0.0 0.0 0.00 0.00 0.00 99 4304.3
20260506124645 8 141 0.0 0.0 0.00 0.00 0.00 99 4304.0
20260506124142 8 127 0.0 0.0 0.00 0.00 0.00 99 4304.0
20260506123639 8 171 0.0 0.0 0.00 0.00 0.00 99 4304.3
20260506123138 8 174 0.0 0.0 0.00 0.00 0.00 99 4304.1
20260506122634 8 135 0.0 0.0 0.00 0.00 0.00 99 4304.1
20260506122132 8 114 0.0 0.0 0.00 0.00 0.00 99 4304.0
20260506121629 8 112 0.0 0.0 0.00 0.00 0.00 99 4303.8
20260506121126 8 108 0.0 0.0 0.00 0.00 0.00 99 4303.7
20260506120624 8 103 0.0 1.6 0.00 0.00 0.00 98 4303.6
20260506120121 8 109 0.0 1.6 0.00 0.00 0.00 98 4303.7
20260506115619 8 84 1.6 3.2 0.00 0.00 0.00 98 4304.0
20260506115117 8 113 0.0 0.0 0.00 0.00 0.00 98 4303.7
20260506114614 8 113 0.0 0.0 0.00 0.00 0.00 98 4303.8
20260506114112 8 113 0.0 0.0 0.00 0.00 0.00 97 4303.7
20260506113610 8 95 0.0 0.0 0.00 0.00 0.00 97 4303.7
20260506113107 8 114 0.0 0.0 0.00 0.00 0.00 97 4303.7
20260506112603 8 114 0.0 0.0 0.00 0.00 0.00 97 4303.8
20260506112101 8 114 0.0 0.0 0.00 0.00 0.00 97 4303.9
20260506111559 8 113 0.0 0.0 0.00 0.00 0.00 97 4303.7
20260506111056 7 113 0.0 0.0 0.00 0.00 0.00 97 4303.8
20260506110553 7 113 0.0 0.0 0.00 0.00 0.00 97 4303.7
20260506110050 7 113 0.0 0.0 0.00 0.00 0.00 97 4303.6
20260506105546 7 113 0.0 0.0 0.00 0.00 0.00 97 4303.7
20260506105044 7 113 0.0 0.0 0.00 0.00 0.00 96 4303.5
20260506104542 8 113 0.0 0.0 0.00 0.00 0.00 97 4303.7
20260506104039 8 113 0.0 0.0 0.00 0.00 0.00 97 4303.5
20260506103536 8 113 0.0 0.0 0.00 0.00 0.00 97 4303.3
20260506103033 8 113 0.0 0.0 0.00 0.00 0.00 97 4303.6
20260506102532 8 113 0.0 0.0 0.00 0.00 0.00 97 4303.6
20260506102029 8 113 0.0 0.0 0.00 0.00 0.00 97 4303.7
20260506101525 8 113 0.0 0.0 0.00 0.00 0.00 97 4303.6
20260506101022 8 112 0.0 0.0 0.00 0.00 0.00 97 4303.5
20260506100520 8 112 0.0 0.0 0.00 0.00 0.00 97 4303.5
20260506100018 8 112 0.0 0.0 0.00 0.00 0.00 97 4303.5
20260506095517 8 106 0.0 0.0 0.00 0.00 0.00 96 4303.6
20260506095012 8 113 0.0 0.0 0.00 0.00 0.00 96 4303.6
20260506094511 8 113 0.0 0.0 0.00 0.00 0.00 97 4303.6
20260506094008 8 113 0.0 0.0 0.00 0.00 0.00 96 4303.4
20260506093506 8 113 0.0 0.0 0.00 0.00 0.00 96 4303.6
20260506093004 8 112 0.0 0.0 0.00 0.00 0.00 96 4303.6
20260506092501 8 111 0.0 0.0 0.00 0.00 0.00 96 4303.5
20260506091957 8 88 0.0 0.0 0.00 0.00 0.00 96 4303.3
20260506091456 8 106 0.0 0.0 0.00 0.00 0.00 96 4303.3
20260506090953 8 108 0.0 0.0 0.00 0.00 0.00 96 4303.5
20260506090451 8 92 0.0 1.6 0.00 0.00 0.00 96 4303.6
20260506085947 8 107 0.0 0.0 0.00 0.00 0.00 96 4303.5
20260506085444 8 98 0.0 0.0 0.00 0.00 0.00 96 4303.5
20260506084940 8 96 0.0 0.0 0.00 0.00 0.00 95 4303.5
20260506084437 8 95 0.0 0.0 0.00 0.00 0.00 95 4303.6
20260506083933 8 112 0.0 0.0 0.00 0.00 0.00 95 4303.7
20260506083431 8 113 0.0 0.0 0.00 0.00 0.00 95 4303.5
20260506082928 8 114 0.0 0.0 0.00 0.00 0.00 94 4303.6
20260506082425 8 112 0.0 0.0 0.00 0.00 0.00 94 4303.6
20260506081920 8 126 0.0 0.0 0.00 0.00 0.00 94 4303.5
20260506081419 8 133 0.0 0.0 0.00 0.00 0.00 94 4303.4
20260506080916 8 131 0.0 0.0 0.00 0.00 0.00 93 4303.6
20260506080412 8 167 0.0 0.0 0.00 0.00 0.00 93 4303.5
20260506073357 9 189 0.0 0.0 0.00 0.00 0.00 91 4303.1
20260506072853 9 189 0.0 0.0 0.00 0.00 0.00 91 4303.2
20260506072351 9 191 0.0 0.0 0.00 0.00 0.00 91 4303.3
20260506071848 9 166 0.0 0.0 0.00 0.00 0.00 91 4303.1
20260506071347 9 137 0.0 0.0 0.00 0.00 0.00 91 4302.9
20260506070843 9 137 0.0 0.0 0.00 0.00 0.00 91 4303.0
20260506070340 10 137 0.0 0.0 0.00 0.00 0.00 91 4302.9
20260506062317 10 147 0.0 0.0 0.00 0.00 0.00 90 4302.5
20260506061813 10 149 0.0 0.0 0.00 0.00 0.00 90 4302.7
20260506061310 10 149 0.0 0.0 0.00 0.00 0.00 89 4302.5
20260506060808 10 149 0.0 0.0 0.00 0.00 0.00 89 4302.5
20260506060306 10 149 0.0 0.0 0.00 0.00 0.00 89 4302.4
20260506051237 11 151 0.0 0.0 0.00 0.00 0.00 86 4302.0
20260506050736 11 150 0.0 0.0 0.00 0.00 0.00 85 4302.2
20260506050233 11 150 0.0 0.0 0.00 0.00 0.00 84 4302.0
20260506044723 12 153 0.0 0.0 0.00 0.00 0.00 83 4301.7
20260506044221 12 202 0.0 0.0 0.00 0.00 0.00 83 4301.7
20260506043718 12 202 0.0 0.0 0.00 0.00 0.00 82 4301.3
20260506043216 12 204 0.0 0.0 0.00 0.00 0.00 81 4301.7
20260506042714 12 206 0.0 0.0 0.00 0.00 0.00 80 4301.7
20260506042212 12 206 0.0 0.0 0.00 0.00 0.00 81 4301.3
20260506041710 12 206 0.0 0.0 0.00 0.00 0.00 81 4301.4
20260506041207 12 206 0.0 0.0 0.00 0.00 0.00 80 4301.4
20260506040705 12 206 0.0 0.0 0.00 0.00 0.00 80 4301.3
20260506040201 12 206 0.0 0.0 0.00 0.00 0.00 79 4301.1
20260506035658 12 206 0.0 0.0 0.00 0.00 0.00 79 4300.8
20260506035155 13 206 0.0 0.0 0.00 0.00 0.00 79 4301.0
20260506034651 13 206 0.0 0.0 0.00 0.00 0.00 79 4300.8
20260506034149 13 221 0.0 0.0 0.00 0.00 0.00 79 4300.9
20260506033646 13 221 0.0 0.0 0.00 0.00 0.00 78 4300.6
20260506033143 13 222 0.0 0.0 0.00 0.00 0.00 78 4300.6
20260506032640 13 222 0.0 0.0 0.00 0.00 0.00 77 4300.5
20260506032137 13 233 1.6 1.6 0.00 0.00 0.00 77 4300.5
20260506031634 13 220 0.0 1.6 0.00 0.00 0.00 76 4300.3
20260506031131 13 236 1.6 3.2 0.00 0.00 0.00 76 4300.0
20260506030630 13 215 0.0 0.0 0.00 0.00 0.00 75 4300.3
20260506030126 14 216 1.6 1.6 0.00 0.00 0.00 75 4300.1
20260506025623 14 240 3.2 3.2 0.00 0.00 0.00 74 4300.0
20260506025119 14 233 1.6 3.2 0.00 0.00 0.00 73 4300.2
20260506024617 15 229 4.8 4.8 0.00 0.00 0.00 72 4299.9
20260506024113 15 233 4.8 4.8 0.00 0.00 0.00 72 4299.9
20260506023609 15 222 1.6 4.8 0.00 0.00 0.00 71 4299.9
20260506023107 15 220 4.8 8.0 0.00 0.00 0.00 71 4299.7
20260506022604 15 233 4.8 4.8 0.00 0.00 0.00 70 4299.8
20260506022101 16 263 0.0 0.0 0.00 0.00 0.00 70 4299.6
20260506021559 16 215 4.8 4.8 0.00 0.00 0.00 68 4299.9
20260506021056 16 265 1.6 3.2 0.00 0.00 0.00 66 4299.6
20260506020553 16 270 4.8 4.8 0.00 0.00 0.00 66 4299.6
20260506020051 16 224 0.0 1.6 0.00 0.00 0.00 65 4299.5
20260506015548 16 246 4.8 8.0 0.00 0.00 0.00 64 4299.3
20260506015044 16 281 4.8 4.8 0.00 0.00 0.00 64 4299.5
20260506014542 17 239 3.2 8.0 0.00 0.00 0.00 64 4299.4
20260506014037 17 265 3.2 4.8 0.00 0.00 0.00 63 4299.4
20260506013536 17 263 3.2 8.0 0.00 0.00 0.00 63 4299.4
20260506013032 17 286 3.2 4.8 0.00 0.00 0.00 63 4299.4
20260506012529 17 275 8.0 9.7 0.00 0.00 0.00 62 4299.1
20260506012026 17 224 4.8 4.8 0.00 0.00 0.00 63 4299.2
20260506011523 17 282 4.8 8.0 0.00 0.00 0.00 64 4299.4
20260506011020 17 253 6.4 9.7 0.00 0.00 0.00 63 4299.4
20260506010519 18 257 6.4 9.7 0.00 0.00 0.00 63 4299.2
20260506010015 18 179 1.6 3.2 0.00 0.00 0.00 61 4299.4
20260506005512 18 271 8.0 12.9 0.00 0.00 0.00 61 4299.3
20260506005008 18 228 4.8 11.3 0.00 0.00 0.00 63 4299.4
20260506004506 19 219 4.8 8.0 0.00 0.00 0.00 60 4299.3
20260506004002 20 216 9.7 11.3 0.00 0.00 0.00 56 4299.3
20260506003458 19 263 1.6 1.6 0.00 0.00 0.00 53 4299.0
20260506002954 19 243 4.8 8.0 0.00 0.00 0.00 53 4299.1
20260506002451 18 262 1.6 3.2 0.00 0.00 0.00 55 4299.2
20260506001946 18 241 3.2 4.8 0.00 0.00 0.00 56 4299.3
20260506001443 18 311 1.6 3.2 0.00 0.00 0.00 56 4298.8
20260506000940 18 282 3.2 3.2 0.00 0.00 0.00 56 4299.1
20260506000438 19 241 8.0 11.3 0.00 0.00 0.00 56 4299.0
20260505235935 20 226 1.6 3.2 0.00 0.00 0.00 54 4299.2
20260505235433 19 236 0.0 1.6 0.00 0.00 0.00 51 4299.1
20260505234929 20 225 8.0 11.3 0.00 0.00 0.00 48 4299.1
20260505234427 20 230 3.2 8.0 0.00 0.00 0.00 48 4299.1
20260505233923 20 266 8.0 11.3 0.00 0.00 0.00 50 4298.9
20260505233421 20 252 4.8 8.0 0.00 0.00 0.00 49 4299.3
20260505232919 19 169 3.2 4.8 0.00 0.00 0.00 51 4299.2
20260505232416 20 265 4.8 8.0 0.00 0.00 0.00 52 4299.3
20260505231913 20 230 0.0 1.6 0.00 0.00 0.00 51 4299.2
20260505231410 20 221 4.8 4.8 0.00 0.00 0.00 49 4299.2
20260505230909 21 298 8.0 9.7 0.00 0.00 0.00 48 4299.2
20260505230406 20 297 4.8 4.8 0.00 0.00 0.00 47 4299.2
20260505225902 21 113 1.6 1.6 0.00 0.00 0.00 47 4299.1
20260505225400 21 250 4.8 4.8 0.00 0.00 0.00 45 4299.2
20260505224900 20 231 0.0 0.0 0.00 0.00 0.00 48 4299.3
20260505224358 20 276 4.8 8.0 0.00 0.00 0.00 48 4299.4
20260505223854 21 308 1.6 1.6 0.00 0.00 0.00 44 4299.3
20260505223351 20 296 4.8 8.0 0.00 0.00 0.00 47 4299.4
20260505222847 21 280 6.4 9.7 0.00 0.00 0.00 45 4299.4
20260505222344 20 228 0.0 0.0 0.00 0.00 0.00 46 4299.6
20260505221841 20 279 4.8 8.0 0.00 0.00 0.00 45 4299.5
20260505221337 20 221 1.6 1.6 0.00 0.00 0.00 46 4299.8
20260505220835 21 321 11.3 12.9 0.00 0.00 0.00 46 4299.6
20260505220332 19 255 0.0 0.0 0.00 0.00 0.00 49 4299.7
20260505215830 18 232 6.4 11.3 0.00 0.00 0.00 51 4299.8
20260505215327 19 227 3.2 3.2 0.00 0.00 0.00 49 4299.8
20260505214825 20 295 9.7 11.3 0.00 0.00 0.00 48 4300.0
20260505214322 20 303 4.8 9.7 0.00 0.00 0.00 49 4299.6
20260505213819 20 294 3.2 4.8 0.00 0.00 0.00 48 4300.0
20260505213317 20 335 0.0 0.0 0.00 0.00 0.00 49 4300.0
20260505212813 20 315 4.8 8.0 0.00 0.00 0.00 49 4300.0
20260505212310 19 303 3.2 4.8 0.00 0.00 0.00 50 4300.0
20260505211806 19 351 6.4 9.7 0.00 0.00 0.00 50 4300.1
20260505211304 19 323 14.5 17.7 0.00 0.00 0.00 50 4300.2
20260505210800 19 330 1.6 8.0 0.00 0.00 0.00 51 4299.9
20260505210257 20 311 11.3 16.1 0.00 0.00 0.00 49 4300.2
20260505205754 19 269 0.0 0.0 0.00 0.00 0.00 52 4300.1
20260505205253 18 311 9.7 11.3 0.00 0.00 0.00 51 4300.2
20260505204749 18 271 8.0 11.3 0.00 0.00 0.00 52 4300.2
20260505204247 18 279 0.0 0.0 0.00 0.00 0.00 54 4300.3
20260505203744 18 282 4.8 8.0 0.00 0.00 0.00 55 4300.1
20260505203241 18 262 3.2 4.8 0.00 0.00 0.00 54 4300.0
20260505202736 18 257 9.7 14.5 0.00 0.00 0.00 54 4300.3
20260505202233 18 315 9.7 17.7 0.00 0.00 0.00 55 4300.1
20260505201729 18 255 1.6 1.6 0.00 0.00 0.00 55 4300.2
20260505201227 19 261 3.2 3.2 0.00 0.00 0.00 53 4300.2
20260505200725 19 289 4.8 8.0 0.00 0.00 0.00 53 4300.2
20260505200222 19 306 0.0 0.0 0.00 0.00 0.00 53 4300.2
20260505195717 19 281 0.0 0.0 0.00 0.00 0.00 53 4300.3
20260505195215 18 221 0.0 0.0 0.00 0.00 0.00 54 4300.1
20260505194712 19 202 0.0 0.0 0.00 0.00 0.00 56 4300.2
20260505194209 17 196 0.0 0.0 0.00 0.00 0.00 56 4300.5
20260505193704 18 188 0.0 0.0 0.00 0.00 0.00 58 4300.4
20260505193202 18 183 0.0 0.0 0.00 0.00 0.00 57 4300.4
20260505192701 18 183 0.0 0.0 0.00 0.00 0.00 58 4300.3
20260505192158 17 191 0.0 0.0 0.00 0.00 0.00 59 4300.3
20260505191656 17 192 0.0 0.0 0.00 0.00 0.00 59 4300.4
20260505191154 17 164 0.0 0.0 0.00 0.00 0.00 59 4300.3
20260505190649 17 179 0.0 0.0 0.00 0.00 0.00 59 4300.2
20260505190149 16 178 0.0 0.0 0.00 0.00 0.00 60 4300.6
20260505185646 16 184 0.0 0.0 0.00 0.00 0.00 62 4300.5
20260505185142 17 193 0.0 0.0 0.00 0.00 0.00 59 4300.4
20260505184639 17 191 0.0 0.0 0.00 0.00 0.00 60 4300.3
20260505184136 16 183 0.0 0.0 0.00 0.00 0.00 61 4300.5
20260505183633 16 184 0.0 0.0 0.00 0.00 0.00 62 4300.5
20260505183131 16 183 0.0 0.0 0.00 0.00 0.00 61 4300.5
20260505182627 17 180 0.0 0.0 0.00 0.00 0.00 59 4300.3
20260505182124 16 183 0.0 0.0 0.00 0.00 0.00 60 4300.2
20260505181620 17 191 0.0 0.0 0.00 0.00 0.00 59 4300.2
20260505181118 16 183 0.0 0.0 0.00 0.00 0.00 60 4300.3
20260505180614 16 173 0.0 0.0 0.00 0.00 0.00 61 4300.2
20260505180111 16 177 0.0 0.0 0.00 0.00 0.00 61 4300.2
20260505175607 16 167 0.0 0.0 0.00 0.00 0.00 62 4300.2
20260505175104 16 166 0.0 0.0 0.00 0.00 0.00 62 4300.2
20260505174600 16 159 0.0 0.0 0.00 0.00 0.00 62 4300.0
20260505174056 16 169 0.0 0.0 0.00 0.00 0.00 62 4299.9
20260505173553 15 166 0.0 0.0 0.00 0.00 0.00 65 4300.2
20260505173050 15 171 0.0 0.0 0.00 0.00 0.00 67 4300.2
20260505172548 15 165 0.0 0.0 0.00 0.00 0.00 67 4300.5
20260505172044 15 158 0.0 0.0 0.00 0.00 0.00 70 4300.6
20260505171539 15 162 0.0 0.0 0.00 0.00 0.00 68 4300.4
20260505171036 15 166 0.0 0.0 0.00 0.00 0.00 68 4300.5
20260505170533 14 162 0.0 0.0 0.00 0.00 0.00 71 4300.4
20260505170029 13 160 0.0 0.0 0.00 0.00 0.00 72 4300.4